Weather History for Redding, CA

Change the Weather History Date:

Saturday, April 14, 2012

  Actual Average Record
Temperature  
Mean Temperature 54 °F -  
Max Temperature 70 °F 70 °F 89 °F (1990)
Min Temperature 37 °F 46 °F 34 °F (2005)
Degree Days  
Heating Degree Days 11    
Month to date heating degree days 197  
Cooling Degree Days 0    
Month to date cooling degree days 0  
Year to date cooling degree days 0  
Growing Degree Days 4 (Base 50)    
Moisture  
Dew Point 38 °F    
Average Humidity 63    
Maximum Humidity 100    
Minimum Humidity 26    
Precipitation  
Precipitation 0.00 in 0.09 in 0.53 in (2010)
Month to date precipitation 2.66 1.20  
Year to date precipitation 16.35 17.04  
Since 1 July precipitation 22.68 30.80  
Sea Level Pressure  
Sea Level Pressure 29.95 in    
Wind  
Wind Speed 3 mph (NNW)    
Max Wind Speed 17 mph    
Max Gust Speed 23 mph    
Visibility 10 miles    
Events Fog    
T = Trace of Precipitation, MM = Missing Value Source: NWS Daily Summary

Daily Weather History Graph

Daily Weather History Graph

Search for Another Location

Airport:

Trip Planner

Search our weather history database for the weather conditions in past years. The results will help you decide how hot, cold, wet, or windy it might be!

Date:

Astronomy

Apr. 14, 2012 Rise Set
Actual Time 6:31 AM PDT 7:47 PM PDT
Civil Twilight 6:03 AM PDT 8:16 PM PDT
Nautical Twilight 5:29 AM PDT 8:50 PM PDT
Astronomical Twilight 4:53 AM PDT 9:25 PM PDT
Moon 2:59 AM PDT (4/14) 1:45 PM PDT (4/14)
Length of Visible Light 14h 13m
Length of Day
13h 16m
Last Quarter, 36% of the Moon is Illuminated
Apr 14
Last Quarter
Apr 21
New
Apr 29
First Quarter
May 5
Full
May 12
Last Quarter

Hourly Weather History & Observations

Time (PDT) Temp. Windchill Dew Point Humidity Pressure Visibility Wind Dir Wind Speed Gust Speed Precip Events Conditions
12:53 AM 44.1 °F - 43.0 °F 96% 29.84 in 10.0 mi Calm Calm - N/A   Overcast
1:53 AM 44.1 °F 42.5 °F 42.1 °F 93% 29.84 in 10.0 mi NNW 3.5 mph - N/A   Overcast
2:53 AM 43.0 °F - 41.0 °F 93% 29.84 in 10.0 mi Calm Calm - N/A   Mostly Cloudy
3:53 AM 41.0 °F - 39.9 °F 96% 29.86 in 10.0 mi Calm Calm - N/A   Partly Cloudy
4:53 AM 39.9 °F 37.8 °F 39.0 °F 97% 29.87 in 10.0 mi NNW 3.5 mph - N/A   Scattered Clouds
5:53 AM 39.0 °F 35.7 °F 37.0 °F 93% 29.88 in 10.0 mi NW 4.6 mph - N/A   Clear
6:53 AM 37.9 °F - 37.0 °F 97% 29.91 in 3.0 mi Calm Calm - N/A   Clear
6:55 AM 37.4 °F - 37.4 °F 100% 29.91 in 1.2 mi Calm Calm - N/A   Clear
7:03 AM 37.4 °F - 37.4 °F 100% 29.91 in 10.0 mi Calm Calm - N/A Fog Patches of Fog
7:53 AM 42.1 °F 40.2 °F 39.9 °F 92% 29.93 in 10.0 mi North 3.5 mph - N/A Fog Patches of Fog
8:53 AM 48.0 °F - 42.1 °F 80% 29.95 in 10.0 mi NNE 3.5 mph - N/A   Clear
9:53 AM 54.0 °F - 43.0 °F 66% 29.96 in 10.0 mi Calm Calm - N/A   Clear
10:53 AM 59.0 °F - 39.0 °F 48% 29.97 in 10.0 mi NNW 4.6 mph - N/A   Clear
11:53 AM 62.1 °F - 39.0 °F 43% 29.96 in 10.0 mi NNE 10.4 mph 16.1 mph N/A   Clear
12:53 PM 64.9 °F - 37.9 °F 37% 29.96 in 10.0 mi North 12.7 mph 21.9 mph N/A   Clear
1:53 PM 66.9 °F - 39.0 °F 36% 29.96 in 10.0 mi North 11.5 mph 20.7 mph N/A   Partly Cloudy
2:53 PM 69.1 °F - 37.0 °F 31% 29.96 in 10.0 mi North 10.4 mph - N/A   Clear
3:53 PM 69.1 °F - 34.0 °F 27% 29.97 in 10.0 mi Variable 5.8 mph - N/A   Clear
4:53 PM 70.0 °F - 34.0 °F 27% 29.96 in 10.0 mi NNW 10.4 mph - N/A   Clear
5:53 PM 70.0 °F - 33.1 °F 26% 29.97 in 10.0 mi NW 8.1 mph 16.1 mph N/A   Clear
6:53 PM 69.1 °F - 33.1 °F 26% 29.98 in 10.0 mi NW 5.8 mph - N/A   Clear
7:53 PM 61.0 °F - 36.0 °F 39% 30.00 in 10.0 mi NW 3.5 mph - N/A   Clear
8:53 PM 57.9 °F - 37.9 °F 47% 30.03 in 10.0 mi NNW 4.6 mph - N/A   Clear
9:53 PM 57.0 °F - 37.9 °F 49% 30.06 in 10.0 mi North 5.8 mph - N/A   Clear
10:53 PM 55.0 °F - 39.0 °F 55% 30.07 in 10.0 mi North 3.5 mph - N/A   Clear
11:53 PM 50.0 °F - 39.9 °F 68% 30.09 in 10.0 mi North 3.5 mph - N/A   Clear